Time,TemperatureF,DewpointF,PressureIn,WindDirection,WindDirectionDegrees,WindSpeedMPH,WindSpeedGustMPH,Humidity,HourlyPrecipIn,Conditions,Clouds,dailyrainin,SolarRadiationWatts/m^2,SoftwareType,DateUTC
2013-10-19 14:27:00,55.2,42.8,30.30,ESE,112,4.6,4.6,63,0.00,OVC,,0.00,94.2,WeatherDisplay:10.37,2013-10-19 12:27:00,
2013-10-19 14:28:00,55.2,42.8,30.30,ESE,112,2.3,2.3,63,0.00,OVC,,0.00,93.9,WeatherDisplay:10.37,2013-10-19 12:28:00,
2013-10-19 14:33:00,55.2,42.8,30.30,WNW,292,5.8,5.8,63,0.00,OVC,,0.00,92.6,WeatherDisplay:10.37,2013-10-19 12:33:00,
2013-10-19 14:38:00,55.4,43.0,30.30,NNW,338,4.0,4.0,63,0.00,OVC,,0.00,91.1,WeatherDisplay:10.37,2013-10-19 12:38:00,
2013-10-19 14:43:00,55.4,42.6,30.30,SSW,202,4.6,4.6,62,0.00,OVC,,0.00,89.6,WeatherDisplay:10.37,2013-10-19 12:43:00,
2013-10-19 14:48:00,55.6,42.8,30.30,SSE,158,3.5,3.5,62,0.00,OVC,,0.00,88.1,WeatherDisplay:10.37,2013-10-19 12:48:00,
2013-10-19 14:53:00,55.6,42.8,30.27,ESE,112,3.5,3.5,62,0.00,OVC,,0.00,86.5,WeatherDisplay:10.37,2013-10-19 12:53:00,
2013-10-19 14:58:00,55.6,42.8,30.27,SSW,202,3.5,3.5,62,0.00,OVC,,0.00,84.8,WeatherDisplay:10.37,2013-10-19 12:58:00,
2013-10-19 15:03:00,55.6,42.3,30.27,WSW,248,4.6,4.6,61,0.00,OVC,,0.00,83.2,WeatherDisplay:10.37,2013-10-19 13:03:00,
2013-10-19 15:08:00,55.4,42.2,30.27,ESE,112,3.5,3.5,61,0.00,OVC,,0.00,81.3,WeatherDisplay:10.37,2013-10-19 13:08:00,
2013-10-19 15:13:00,55.4,42.2,30.27,SSE,158,8.5,8.5,61,0.00,OVC,,0.00,79.5,WeatherDisplay:10.37,2013-10-19 13:13:00,
2013-10-19 15:18:00,55.4,42.2,30.27,NNE,22,8.1,8.1,61,0.00,OVC,,0.00,77.7,WeatherDisplay:10.37,2013-10-19 13:18:00,
2013-10-19 15:23:00,55.4,42.6,30.27,NW,315,2.3,2.3,62,0.00,OVC,,0.00,75.7,WeatherDisplay:10.37,2013-10-19 13:23:00,
2013-10-19 15:28:00,55.4,42.6,30.27,SSW,202,3.5,3.5,62,0.00,OVC,,0.00,73.9,WeatherDisplay:10.37,2013-10-19 13:28:00,
2013-10-19 15:33:00,55.4,42.6,30.27,SSW,202,3.3,3.3,62,0.00,OVC,,0.00,71.9,WeatherDisplay:10.37,2013-10-19 13:33:00,
2013-10-19 15:38:00,55.2,42.4,30.27,ESE,112,5.8,5.8,62,0.00,OVC,,0.00,69.8,WeatherDisplay:10.37,2013-10-19 13:38:00,
2013-10-19 15:43:00,55.2,42.4,30.27,SSW,202,2.6,2.6,62,0.00,OVC,,0.00,67.8,WeatherDisplay:10.37,2013-10-19 13:43:00,
2013-10-19 15:48:00,55.0,42.3,30.27,NNW,338,2.3,2.3,62,0.00,OVC,,0.00,65.7,WeatherDisplay:10.37,2013-10-19 13:48:00,
2013-10-19 15:53:00,54.9,42.1,30.27,SSE,158,3.5,3.5,62,0.00,OVC,,0.00,63.5,WeatherDisplay:10.37,2013-10-19 13:53:00,
2013-10-19 15:58:00,54.7,41.9,30.27,South,180,3.6,3.6,62,0.00,OVC,,0.00,61.4,WeatherDisplay:10.37,2013-10-19 13:58:00,
2013-10-19 16:03:00,54.7,41.9,30.27,ESE,112,3.8,3.8,62,0.00,OVC,,0.00,59.2,WeatherDisplay:10.37,2013-10-19 14:03:00,
2013-10-19 16:08:00,54.5,41.7,30.27,South,180,2.6,2.6,62,0.00,OVC,,0.00,56.9,WeatherDisplay:10.37,2013-10-19 14:08:00,
2013-10-19 16:13:00,54.5,42.2,30.27,ESE,112,3.5,3.5,63,0.00,OVC,,0.00,54.6,WeatherDisplay:10.37,2013-10-19 14:13:00,
2013-10-19 16:18:00,54.5,42.2,30.27,SSW,202,2.3,2.3,63,0.00,OVC,,0.00,52.5,WeatherDisplay:10.37,2013-10-19 14:18:00,
2013-10-19 16:23:00,54.7,42.3,30.24,SSW,202,6.9,6.9,63,0.00,OVC,,0.00,50.2,WeatherDisplay:10.37,2013-10-19 14:23:00,
2013-10-19 16:28:00,54.9,42.1,30.24,SSE,158,3.1,3.1,62,0.00,OVC,,0.00,47.7,WeatherDisplay:10.37,2013-10-19 14:28:00,
2013-10-19 16:33:00,54.9,42.1,30.24,East,90,4.6,4.6,62,0.00,OVC,,0.00,45.4,WeatherDisplay:10.37,2013-10-19 14:33:00,
2013-10-19 16:38:00,54.7,41.9,30.24,SSE,158,2.6,2.6,62,0.00,OVC,,0.00,43.1,WeatherDisplay:10.37,2013-10-19 14:38:00,
2013-10-19 16:43:00,54.7,41.9,30.24,SSE,158,4.6,4.6,62,0.00,OVC,,0.00,40.6,WeatherDisplay:10.37,2013-10-19 14:43:00,
2013-10-19 16:48:00,54.5,41.7,30.24,ESE,112,5.4,5.4,62,0.00,OVC,,0.00,38.1,WeatherDisplay:10.37,2013-10-19 14:48:00,
2013-10-19 16:53:00,54.5,41.7,30.24,ESE,112,4.0,4.0,62,0.00,OVC,,0.00,35.8,WeatherDisplay:10.37,2013-10-19 14:53:00,
2013-10-19 16:58:00,54.3,41.6,30.24,ESE,112,1.2,0.0,62,0.00,OVC,,0.00,33.3,WeatherDisplay:10.37,2013-10-19 14:58:00,
2013-10-19 17:03:00,54.1,41.4,30.24,SSW,202,2.3,2.3,62,0.00,OVC,,0.00,30.7,WeatherDisplay:10.37,2013-10-19 15:03:00,
2013-10-19 17:08:00,54.0,41.6,30.24,SSE,158,4.6,4.6,63,0.00,OVC,,0.00,28.2,WeatherDisplay:10.37,2013-10-19 15:08:00,
2013-10-19 17:13:00,53.6,41.3,30.24,WSW,248,3.5,3.5,63,0.00,OVC,,0.00,25.7,WeatherDisplay:10.37,2013-10-19 15:13:00,
2013-10-19 17:18:00,53.4,41.1,30.24,SSE,158,2.3,2.3,63,0.00,OVC,,0.00,23.3,WeatherDisplay:10.37,2013-10-19 15:18:00,
2013-10-19 17:23:00,53.2,41.0,30.24,ESE,112,2.6,3.3,63,0.00,OVC,,0.00,20.8,WeatherDisplay:10.37,2013-10-19 15:23:00,
2013-10-19 17:28:00,53.1,40.8,30.24,South,180,4.6,4.6,63,0.00,OVC,,0.00,18.3,WeatherDisplay:10.37,2013-10-19 15:28:00,
2013-10-19 17:33:00,52.9,41.0,30.24,SE,135,3.5,3.5,64,0.00,OVC,,0.00,15.8,WeatherDisplay:10.37,2013-10-19 15:33:00,
2013-10-19 17:38:00,52.5,40.7,30.24,SSE,158,2.3,2.3,64,0.00,OVC,,0.00,13.2,WeatherDisplay:10.37,2013-10-19 15:38:00,
2013-10-19 17:43:00,52.2,40.7,30.24,SSE,158,3.5,3.5,65,0.00,OVC,,0.00,10.7,WeatherDisplay:10.37,2013-10-19 15:43:00,
2013-10-19 17:48:00,51.6,40.2,30.24,ESE,112,3.5,3.5,65,0.00,OVC,,0.00,8.3,WeatherDisplay:10.37,2013-10-19 15:48:00,
2013-10-19 17:53:00,51.4,40.5,30.24,ESE,112,3.5,3.5,66,0.00,OVC,,0.00,5.8,WeatherDisplay:10.37,2013-10-19 15:53:00,
2013-10-19 17:58:00,51.1,40.1,30.24,ESE,112,2.3,2.3,66,0.00,OVC,,0.00,3.1,WeatherDisplay:10.37,2013-10-19 15:58:00,
2013-10-19 18:03:00,50.7,40.2,30.24,ESE,112,3.5,3.5,67,0.00,CLR,,0.00,0.0,WeatherDisplay:10.37,2013-10-19 16:03:00,
2013-10-19 18:08:00,50.4,39.8,30.24,ESE,112,3.1,3.1,67,0.00,CLR,,0.00,0.0,WeatherDisplay:10.37,2013-10-19 16:08:00,
2013-10-19 18:13:00,50.2,39.6,30.24,SSE,158,3.5,0.0,67,0.00,CLR,,0.00,0.0,WeatherDisplay:10.37,2013-10-19 16:13:00,
2013-10-19 18:18:00,50.0,39.8,30.24,ESE,112,5.4,5.4,68,0.00,CLR,,0.00,0.0,WeatherDisplay:10.37,2013-10-19 16:18:00,
2013-10-19 18:23:00,49.8,40.1,30.24,ESE,112,2.3,0.0,69,0.00,CLR,,0.00,0.0,WeatherDisplay:10.37,2013-10-19 16:23:00,
2013-10-19 18:28:00,49.6,39.9,30.24,ESE,112,3.5,3.5,69,0.00,CLR,,0.00,0.0,WeatherDisplay:10.37,2013-10-19 16:28:00,
2013-10-19 18:33:00,49.5,39.7,30.24,SSW,202,6.9,6.9,69,0.00,CLR,,0.00,0.0,WeatherDisplay:10.37,2013-10-19 16:33:00,
2013-10-19 18:38:00,49.6,39.5,30.21,East,90,3.5,3.5,68,0.00,CLR,,0.00,0.0,WeatherDisplay:10.37,2013-10-19 16:38:00,
2013-10-19 18:43:00,49.8,39.7,30.21,ESE,112,4.3,4.3,68,0.00,CLR,,0.00,0.0,WeatherDisplay:10.37,2013-10-19 16:43:00,
2013-10-19 18:48:00,49.8,39.7,30.21,SSE,158,5.8,5.8,68,0.00,CLR,,0.00,0.0,WeatherDisplay:10.37,2013-10-19 16:48:00,
2013-10-19 18:53:00,49.8,39.7,30.24,ESE,112,5.8,5.8,68,0.00,CLR,,0.00,0.0,WeatherDisplay:10.37,2013-10-19 16:53:00,
2013-10-19 18:58:00,49.8,39.7,30.24,SE,135,4.6,4.6,68,0.00,CLR,,0.00,0.0,WeatherDisplay:10.37,2013-10-19 16:58:00,
2013-10-19 19:03:00,49.8,39.7,30.24,ESE,112,2.3,2.3,68,0.00,CLR,,0.00,0.0,WeatherDisplay:10.37,2013-10-19 17:03:00,
2013-10-19 19:08:00,49.5,39.7,30.24,ESE,112,3.6,3.6,69,0.00,CLR,,0.00,0.0,WeatherDisplay:10.37,2013-10-19 17:08:00,
2013-10-19 19:13:00,49.1,39.4,30.24,ESE,112,2.6,2.6,69,0.00,CLR,,0.00,0.0,WeatherDisplay:10.37,2013-10-19 17:13:00,
2013-10-19 19:18:00,48.9,39.2,30.24,WSW,248,2.3,2.3,69,0.00,CLR,,0.00,0.0,WeatherDisplay:10.37,2013-10-19 17:18:00,
2013-10-19 19:23:00,48.7,39.0,30.24,ENE,68,2.6,2.6,69,0.00,CLR,,0.00,0.0,WeatherDisplay:10.37,2013-10-19 17:23:00,
2013-10-19 19:28:00,48.7,39.0,30.24,ESE,112,3.5,3.5,69,0.00,CLR,,0.00,0.0,WeatherDisplay:10.37,2013-10-19 17:28:00,
2013-10-19 19:33:00,48.7,39.0,30.24,NNW,338,4.6,4.6,69,0.00,CLR,,0.00,0.0,WeatherDisplay:10.37,2013-10-19 17:33:00,
2013-10-19 19:38:00,48.7,39.4,30.24,SSE,158,5.4,5.4,70,0.00,CLR,,0.00,0.0,WeatherDisplay:10.37,2013-10-19 17:38:00,
2013-10-19 19:43:00,48.7,39.0,30.24,ESE,112,4.6,4.6,69,0.00,CLR,,0.00,0.0,WeatherDisplay:10.37,2013-10-19 17:43:00,
2013-10-19 19:48:00,48.9,39.2,30.24,ESE,112,4.6,4.6,69,0.00,CLR,,0.00,0.0,WeatherDisplay:10.37,2013-10-19 17:48:00,
2013-10-19 19:53:00,48.7,39.4,30.24,ESE,112,2.3,2.3,70,0.00,CLR,,0.00,0.0,WeatherDisplay:10.37,2013-10-19 17:53:00,
2013-10-19 19:58:00,48.7,39.4,30.24,ENE,68,3.5,3.5,70,0.00,CLR,,0.00,0.0,WeatherDisplay:10.37,2013-10-19 17:58:00,
2013-10-19 20:03:00,48.6,39.2,30.24,ESE,112,4.6,4.6,70,0.00,CLR,,0.00,0.0,WeatherDisplay:10.37,2013-10-19 18:03:00,
2013-10-19 20:08:00,48.6,39.2,30.27,ENE,68,2.3,2.3,70,0.00,CLR,,0.00,0.0,WeatherDisplay:10.37,2013-10-19 18:08:00,
2013-10-19 20:13:00,48.2,38.9,30.27,SSE,158,4.6,4.6,70,0.00,CLR,,0.00,0.0,WeatherDisplay:10.37,2013-10-19 18:13:00,
2013-10-19 20:18:00,48.2,38.9,30.27,ESE,112,4.6,4.6,70,0.00,CLR,,0.00,0.0,WeatherDisplay:10.37,2013-10-19 18:18:00,
2013-10-19 20:23:00,48.2,38.9,30.24,ESE,112,3.5,4.3,70,0.00,CLR,,0.00,0.0,WeatherDisplay:10.37,2013-10-19 18:23:00,
2013-10-19 20:28:00,48.2,38.9,30.24,SSE,158,6.9,6.9,70,0.00,CLR,,0.00,0.0,WeatherDisplay:10.37,2013-10-19 18:28:00,
2013-10-19 20:33:00,48.2,39.2,30.24,ESE,112,2.4,2.4,71,0.00,CLR,,0.00,0.0,WeatherDisplay:10.37,2013-10-19 18:33:00,
2013-10-19 20:38:00,48.2,39.2,30.24,ESE,112,3.5,3.5,71,0.00,CLR,,0.00,0.0,WeatherDisplay:10.37,2013-10-19 18:38:00,
2013-10-19 20:43:00,48.0,39.1,30.24,SSE,158,2.6,0.0,71,0.00,CLR,,0.00,0.0,WeatherDisplay:10.37,2013-10-19 18:43:00,
2013-10-19 20:48:00,47.8,38.9,30.24,East,90,3.3,3.3,71,0.00,CLR,,0.00,0.0,WeatherDisplay:10.37,2013-10-19 18:48:00,
2013-10-19 20:53:00,47.8,39.2,30.24,SE,135,5.8,5.8,72,0.00,CLR,,0.00,0.0,WeatherDisplay:10.37,2013-10-19 18:53:00,
2013-10-19 20:58:00,47.7,39.1,30.24,ESE,112,2.9,2.9,72,0.00,CLR,,0.00,0.0,WeatherDisplay:10.37,2013-10-19 18:58:00,
2013-10-19 21:03:00,47.7,39.1,30.24,ESE,112,3.5,3.5,72,0.00,CLR,,0.00,0.0,WeatherDisplay:10.37,2013-10-19 19:03:00,
2013-10-19 21:08:00,47.7,39.1,30.27,SE,135,3.5,3.5,72,0.00,CLR,,0.00,0.0,WeatherDisplay:10.37,2013-10-19 19:08:00,
2013-10-19 21:13:00,47.5,38.9,30.27,East,90,2.3,2.6,72,0.00,CLR,,0.00,0.0,WeatherDisplay:10.37,2013-10-19 19:13:00,
2013-10-19 21:18:00,47.3,38.7,30.27,ESE,112,2.6,2.9,72,0.00,CLR,,0.00,0.0,WeatherDisplay:10.37,2013-10-19 19:18:00,
2013-10-19 21:23:00,47.1,38.9,30.27,ESE,112,3.5,3.5,73,0.00,CLR,,0.00,0.0,WeatherDisplay:10.37,2013-10-19 19:23:00,
2013-10-19 21:28:00,46.9,38.7,30.27,ESE,112,3.5,3.6,73,0.00,CLR,,0.00,0.0,WeatherDisplay:10.37,2013-10-19 19:28:00,
2013-10-19 21:33:00,46.9,38.7,30.27,ESE,112,3.5,3.5,73,0.00,CLR,,0.00,0.0,WeatherDisplay:10.37,2013-10-19 19:33:00,
2013-10-19 21:38:00,46.8,38.6,30.27,SSE,158,2.9,2.9,73,0.00,CLR,,0.00,0.0,WeatherDisplay:10.37,2013-10-19 19:38:00,
2013-10-19 21:43:00,46.8,38.6,30.27,ESE,112,4.9,4.9,73,0.00,CLR,,0.00,0.0,WeatherDisplay:10.37,2013-10-19 19:43:00,
2013-10-19 21:48:00,46.8,38.9,30.27,NNE,22,2.3,2.3,74,0.00,CLR,,0.00,0.0,WeatherDisplay:10.37,2013-10-19 19:48:00,
2013-10-19 21:53:00,46.8,38.9,30.27,ESE,112,3.5,3.5,74,0.00,CLR,,0.00,0.0,WeatherDisplay:10.37,2013-10-19 19:53:00,
2013-10-19 21:58:00,46.6,38.7,30.27,ESE,112,3.5,3.5,74,0.00,CLR,,0.00,0.0,WeatherDisplay:10.37,2013-10-19 19:58:00,
2013-10-19 22:03:00,46.4,38.6,30.27,ESE,112,5.8,5.8,74,0.00,CLR,,0.00,0.0,WeatherDisplay:10.37,2013-10-19 20:03:00,
2013-10-19 22:08:00,46.6,38.7,30.24,ESE,112,4.6,4.6,74,0.00,CLR,,0.00,0.0,WeatherDisplay:10.37,2013-10-19 20:08:00,
2013-10-19 22:13:00,46.8,38.9,30.24,ESE,112,5.8,5.8,74,0.00,CLR,,0.00,0.0,WeatherDisplay:10.37,2013-10-19 20:13:00,
2013-10-19 22:18:00,46.9,39.1,30.24,ESE,112,5.4,5.4,74,0.00,CLR,,0.00,0.0,WeatherDisplay:10.37,2013-10-19 20:18:00,
2013-10-19 22:23:00,47.1,39.3,30.24,ESE,112,5.8,5.8,74,0.00,CLR,,0.00,0.0,WeatherDisplay:10.37,2013-10-19 20:23:00,
2013-10-19 22:28:00,47.3,39.4,30.24,ESE,112,3.5,3.5,74,0.00,CLR,,0.00,0.0,WeatherDisplay:10.37,2013-10-19 20:28:00,
2013-10-19 22:33:00,47.3,39.4,30.24,ESE,112,2.4,2.4,74,0.00,CLR,,0.00,0.0,WeatherDisplay:10.37,2013-10-19 20:33:00,
2013-10-19 22:38:00,47.3,39.4,30.24,ESE,112,8.1,8.1,74,0.00,CLR,,0.00,0.0,WeatherDisplay:10.37,2013-10-19 20:38:00,
2013-10-19 22:43:00,47.3,39.1,30.24,ESE,112,3.5,3.5,73,0.00,CLR,,0.00,0.0,WeatherDisplay:10.37,2013-10-19 20:43:00,
2013-10-19 22:48:00,47.3,39.4,30.24,SE,135,4.6,4.6,74,0.00,CLR,,0.00,0.0,WeatherDisplay:10.37,2013-10-19 20:48:00,
2013-10-19 22:53:00,47.5,39.6,30.27,SSE,158,4.6,4.6,74,0.00,CLR,,0.00,0.0,WeatherDisplay:10.37,2013-10-19 20:53:00,
2013-10-19 22:58:00,47.5,39.6,30.27,East,90,4.6,4.6,74,0.00,CLR,,0.00,0.0,WeatherDisplay:10.37,2013-10-19 20:58:00,
2013-10-19 23:03:00,47.7,39.8,30.27,ESE,112,4.6,4.6,74,0.00,CLR,,0.00,0.0,WeatherDisplay:10.37,2013-10-19 21:03:00,
2013-10-19 23:08:00,47.8,40.0,30.27,ESE,112,4.6,4.6,74,0.00,CLR,,0.00,0.0,WeatherDisplay:10.37,2013-10-19 21:08:00,
2013-10-19 23:13:00,48.0,40.1,30.27,ESE,112,4.0,4.0,74,0.00,CLR,,0.00,0.0,WeatherDisplay:10.37,2013-10-19 21:13:00,
2013-10-19 23:18:00,48.0,40.1,30.27,SW,225,3.5,3.5,74,0.00,CLR,,0.00,0.0,WeatherDisplay:10.37,2013-10-19 21:18:00,
2013-10-19 23:23:00,48.2,39.9,30.24,SSE,158,3.5,3.5,73,0.00,CLR,,0.00,0.0,WeatherDisplay:10.37,2013-10-19 21:23:00,
2013-10-19 23:28:00,48.2,39.9,30.24,East,90,3.5,3.5,73,0.00,CLR,,0.00,0.0,WeatherDisplay:10.37,2013-10-19 21:28:00,
2013-10-19 23:33:00,48.2,39.9,30.24,ESE,112,3.5,3.5,73,0.00,CLR,,0.00,0.0,WeatherDisplay:10.37,2013-10-19 21:33:00,
2013-10-19 23:38:00,48.4,40.1,30.24,ESE,112,4.6,4.6,73,0.00,CLR,,0.00,0.0,WeatherDisplay:10.37,2013-10-19 21:38:00,
2013-10-19 23:43:00,48.4,40.1,30.24,East,90,2.3,2.3,73,0.00,CLR,,0.00,0.0,WeatherDisplay:10.37,2013-10-19 21:43:00,
2013-10-19 23:48:00,48.6,40.3,30.24,WNW,292,2.3,2.3,73,0.00,CLR,,0.00,0.0,WeatherDisplay:10.37,2013-10-19 21:48:00,
2013-10-19 23:53:00,48.6,40.3,30.27,SE,135,3.8,3.8,73,0.00,CLR,,0.00,0.0,WeatherDisplay:10.37,2013-10-19 21:53:00,
2013-10-19 23:58:00,48.7,40.5,30.27,ESE,112,3.5,3.5,73,0.00,CLR,,0.00,0.0,WeatherDisplay:10.37,2013-10-19 21:58:00,